IBONHE1 Weather Reports


time (UTC)temp
C
wind
direction
speed
KPH
gust
KPH
rain 1hr
cm
rain 24hr
cm
rain mn
cm
humidity
%
barometer
mb
20260507130016 17 39 1.6 8.0 0.00 0.00 0.00 54 1066.0
20260507124516 17 243 0.0 4.8 0.00 0.00 0.00 55 1065.9
20260507123021 16 174 0.0 3.2 0.00 0.00 0.00 54 1065.9
20260507121515 16 264 1.6 6.4 0.00 0.00 0.00 54 1065.8
20260507120014 16 34 1.6 6.4 0.00 0.00 0.00 57 1065.8
20260507114513 16 61 1.6 6.4 0.00 0.00 0.00 55 1065.8
20260507113012 17 229 1.6 8.0 0.00 0.00 0.00 55 1065.9
20260507111516 17 255 0.0 6.4 0.00 0.00 0.00 53 1065.9
20260507110011 17 127 0.0 6.4 0.00 0.00 0.00 55 1065.9
20260507104508 17 268 1.6 6.4 0.00 0.00 0.00 56 1066.0
20260507103007 16 46 1.6 6.4 0.00 0.00 0.00 58 1066.1
20260507101507 16 88 1.6 8.0 0.00 0.00 0.00 61 1066.1
20260507100010 16 229 0.0 6.4 0.00 0.00 0.00 62 1066.1
20260507094603 15 77 0.0 6.4 0.00 0.00 0.00 63 1066.1
20260507093101 15 240 1.6 9.7 0.00 0.00 0.00 65 1066.0
20260507091555 15 252 0.0 9.7 0.00 0.00 0.00 66 1066.1
20260507090057 13 125 0.0 8.0 0.00 0.00 0.00 69 1066.1
20260507084553 13 136 0.0 4.8 0.00 0.00 0.00 71 1066.1
20260507083047 13 311 0.0 4.8 0.00 0.00 0.00 72 1066.0
20260507081545 13 302 0.0 4.8 0.00 0.00 0.00 72 1066.0
20260507080047 12 295 0.0 3.2 0.00 0.00 0.00 74 1065.9
20260507074539 12 273 0.0 4.8 0.00 0.00 0.00 75 1065.7
20260507073040 11 239 1.6 6.4 0.00 0.00 0.00 77 1065.7
20260507071533 11 232 0.0 3.2 0.00 0.00 0.00 81 1065.6
20260507070039 10 142 0.0 4.8 0.00 0.00 0.00 82 1065.5
20260507064528 10 301 0.0 3.2 0.00 0.03 0.00 84 1065.5
20260507063026 10 347 0.0 3.2 0.00 0.03 0.00 84 1065.4
20260507061524 10 293 0.0 4.8 0.00 0.03 0.00 85 1065.2
20260507060023 10 321 0.0 4.8 0.00 0.03 0.00 86 1065.1
20260507054521 9 277 0.0 0.0 0.00 0.03 0.00 87 1065.0
20260507053018 9 245 0.0 0.0 0.00 0.03 0.00 87 1064.9
20260507051518 9 245 0.0 0.0 0.00 0.03 0.00 87 1064.7
20260507050036 9 245 0.0 0.0 0.00 0.03 0.00 87 1064.6
20260507044515 9 245 0.0 0.0 0.00 0.03 0.00 87 1064.4
20260507043014 9 240 0.0 0.0 0.00 0.03 0.00 87 1064.3
20260507041513 8 240 0.0 0.0 0.00 0.03 0.00 88 1064.2
20260507040011 8 240 0.0 0.0 0.00 0.03 0.00 88 1064.0
20260507034509 8 240 0.0 0.0 0.00 0.03 0.00 88 1063.8
20260507033008 8 240 0.0 0.0 0.00 0.03 0.00 88 1063.8
20260507031506 9 240 0.0 0.0 0.00 0.03 0.00 88 1063.8
20260507030006 8 240 0.0 0.0 0.00 0.03 0.00 88 1063.7
20260507024505 8 300 0.0 0.0 0.00 0.03 0.00 88 1063.6
20260507023003 9 300 0.0 0.0 0.00 0.03 0.00 88 1063.6
20260507021502 9 300 0.0 0.0 0.00 0.03 0.00 87 1063.5
20260507020002 9 300 0.0 0.0 0.00 0.03 0.00 87 1063.3
20260507014623 9 300 0.0 0.0 0.00 0.03 0.00 86 1063.2
20260507013101 9 300 0.0 0.0 0.00 0.03 0.00 86 1063.2
20260507011601 9 300 0.0 0.0 0.00 0.03 0.00 85 1063.2
20260507010056 9 300 0.0 0.0 0.00 0.03 0.00 85 1063.2
20260507004556 9 300 0.0 0.0 0.00 0.03 0.00 85 1063.2
20260507003154 9 300 0.0 0.0 0.00 0.03 0.00 84 1063.2
20260507001601 9 300 0.0 0.0 0.00 0.03 0.00 84 1063.1
20260507000116 9 300 0.0 0.0 0.00 0.03 0.00 84 1063.1
20260506234610 9 300 0.0 0.0 0.00 0.05 0.00 84 1063.1
20260506233050 9 300 0.0 0.0 0.00 0.05 0.00 83 1063.0
20260506231547 9 300 0.0 0.0 0.00 0.05 0.00 83 1063.0
20260506230052 10 300 0.0 0.0 0.00 0.05 0.00 82 1062.8
20260506224544 10 300 0.0 0.0 0.00 0.05 0.00 82 1062.6
20260506223040 10 300 0.0 0.0 0.00 0.05 0.00 81 1062.5
20260506221551 10 300 0.0 0.0 0.00 0.05 0.00 80 1062.4
20260506220044 10 300 0.0 0.0 0.00 0.05 0.00 81 1062.4
20260506214537 10 300 0.0 0.0 0.00 0.08 0.05 80 1062.4
20260506213043 10 300 0.0 0.0 0.00 0.08 0.05 79 1062.3
20260506211542 10 301 0.0 0.0 0.00 0.08 0.05 79 1062.2
20260506210043 10 301 0.0 0.0 0.00 0.08 0.05 78 1062.1
20260506204534 10 231 0.0 0.0 0.00 0.08 0.05 78 1062.0
20260506203032 11 231 0.0 0.0 0.00 0.08 0.05 76 1061.8
20260506201535 11 231 0.0 0.0 0.00 0.08 0.05 76 1061.8
20260506200031 11 131 0.0 4.8 0.00 0.08 0.05 75 1061.6
20260506194526 11 186 0.0 8.0 0.00 0.08 0.05 76 1061.6
20260506193038 11 269 0.0 1.6 0.00 0.08 0.05 76 1061.5
20260506191522 11 214 0.0 4.8 0.00 0.08 0.05 76 1061.2
20260506190021 11 240 1.6 9.7 0.00 0.08 0.05 75 1061.0
20260506184520 11 257 0.0 4.8 0.00 0.08 0.05 75 1061.0
20260506183019 11 295 1.6 9.7 0.00 0.08 0.05 73 1060.9
20260506181533 12 271 1.6 8.0 0.00 0.08 0.05 71 1060.5
20260506180014 12 295 1.6 9.7 0.00 0.08 0.05 70 1060.4
20260506174512 12 41 3.2 11.3 0.00 0.08 0.05 68 1060.2
20260506173010 12 224 0.0 9.7 0.00 0.08 0.05 67 1060.0
20260506171514 13 321 3.2 6.4 0.00 0.08 0.05 66 1059.8
20260506170007 13 240 1.6 8.0 0.00 0.08 0.05 63 1059.6
20260506164505 13 89 3.2 9.7 0.00 0.08 0.05 61 1059.5
20260506163001 14 114 0.0 8.0 0.00 0.08 0.05 64 1059.3
20260506161559 13 292 4.8 11.3 0.00 0.08 0.05 64 1059.2
20260506160059 14 266 0.0 6.4 0.00 0.08 0.05 66 1059.2
20260506154613 14 90 1.6 9.7 0.00 0.08 0.05 65 1059.2
20260506153057 15 293 1.6 6.4 0.00 0.08 0.05 66 1059.1
20260506151555 15 276 1.6 12.9 0.00 0.08 0.05 64 1059.0
20260506150055 15 255 3.2 12.9 0.00 0.08 0.05 62 1058.9
20260506144558 15 303 0.0 12.9 0.00 0.08 0.05 62 1058.9
20260506143052 15 336 1.6 8.0 0.00 0.08 0.05 63 1058.8
20260506141555 15 207 1.6 9.7 0.00 0.08 0.05 61 1058.9
20260506140053 15 15 1.6 6.4 0.00 0.08 0.05 62 1058.9
20260506134550 15 263 0.0 8.0 0.00 0.08 0.05 63 1058.8
20260506133101 15 70 0.0 8.0 0.00 0.08 0.05 63 1058.8
20260506131546 15 288 1.6 6.4 0.00 0.08 0.05 65 1058.8